Regional Weather Roundup
Issued by NWS Bismarck, ND

Home | Current Version | Previous Version | Text Only | Print | Product List | Glossary On
Versions: 1 2 3 4 5 6 7 8 9 10 11 12 13 14 15 16 17 18 19 20 21 22 23 24 25 26 27 28 29 30 31 32 33 34 35 36 37 38 39 40 41 42 43 44 45 46 47 48 49 50
000
ASUS43 KBIS 220320
RWRBIS

NWR BROADCAST TEXT
NATIONAL WEATHER SERVICE BISMARCK ND
1000 PM CDT SUN SEP 21 2014

NOTE: "FAIR" INDICATES FEW OR NO CLOUDS BELOW 12,000 FEET WITH NO
SIGNIFICANT WEATHER AND/OR OBSTRUCTIONS TO VISIBILITY.


CITY           SKY/WX    TMP DP  RH WIND       PRES   REMARKS
WILLISTON      CLEAR     54  39  57 CALM      30.17S
MINOT          CLEAR     55  43  63 SW8       30.17F
MINOT AFB      CLEAR     53  44  69 SW7       30.16F
BISMARCK       CLEAR     53  45  74 E3        30.22S
DICKINSON      CLEAR     46  37  71 SE7       30.20S
GARRISON         N/A     52  44  74 CALM      30.19F
HETTINGER ARPT CLEAR     56  36  47 SE6       30.24R
JAMESTOWN      CLEAR     50  46  86 CALM      30.21S
BEACH            N/A     46  37  71 S6        30.20S
CARRINGTON     FAIR      48  48 100 CALM      30.22S
CROSBY         FAIR      50  43  76 S9        30.16F
HARVEY         FAIR      48  45  87 S5        30.20S
HAZEN          FAIR      45  39  81 CALM      30.21S
LINTON         FAIR      45  43  93 E6        30.23S
MANDAN         FAIR      59  41  51 SE6       30.23S
OAKES            N/A     48  48 100 S5        30.23S
RUGBY          FAIR      55  46  71 S6        30.18S
STANLEY        FAIR      50  39  66 CALM      30.19S
TIOGA          FAIR      48  36  61 CALM      30.22S
WATFORD CITY   FAIR      48  36  61 CALM      30.16S
$$

CITY           SKY/WX    TMP DP  RH WIND       PRES   REMARKS
GRAND FORKS    CLEAR     52  48  86 S8        30.19R
GRAND FORKS AF CLEAR     51  50  97 S6        30.19S
DEVILS LAKE    CLEAR     52  45  76 SW3       30.18S
FARGO          CLEAR     53  48  83 SE6       30.21S
CANDO          FAIR      50  45  81 SW3       30.19S
CAVALIER       FAIR      54  50  87 S6        30.16F
GRAFTON        FAIR      48  48 100 S7        30.17S
GWINNER        CLEAR     52  48  87 SW8       30.24S
LANGDON        FAIR      48  41  76 SW5       30.18S
ROLLA          FAIR      46  45  93 SW7       30.19S
WALHALLA         N/A     54  54 100 SW3       30.16S
$$

CITY           SKY/WX    TMP DP  RH WIND       PRES   REMARKS
ABERDEEN       CLEAR     50  45  83 SE3       30.24R
MOBRIDGE       CLEAR     52  45  77 SE5       30.21S
BUFFALO          N/A     54  36  50 SE8       30.17S
RAPID CITY     PTCLDY    50  39  66 CALM      30.26R
GLASGOW        CLEAR     57  38  48 E10       30.11R
SIDNEY         CLEAR    N/A N/A N/A CALM      30.17F
WOLF POINT     CLEAR     56  39  53 E6        30.13S
MILES CITY     CLEAR     67  36  31 SE6       30.14S
BAKER          CLEAR     48  37  65 SE6       30.21S
$$

CITY           SKY/WX    TMP DP  RH WIND       PRES   REMARKS
BILLINGS       MOCLDY    65  43  44 N5        30.10F
GREAT FALLS    PTCLDY    63  47  55 SE5       30.03S
REGINA         CLEAR     54  45  71 S8        30.10F
ESTEVAN        CLEAR     50  43  76 S3        30.16S
$$




USA.gov is the U.S. government's official web portal to all federal, state and local government web resources and services.